Home > Weather > Letterkenny > Past weeks

Flag for Ireland Past Weather in Letterkenny, Ireland — Yesterday and Last 2 Weeks

Now
62 °F

Cool.


Feels Like: 62 °F
Forecast: 52 / 63 °F
Wind: 16 mph from Southwest

Location: Castlederg

Current Time: Aug 26, 2016 at 1:22:52 PM

Latest Report: Aug 26, 2016 at 12:00 PM


Visibility: 22 mi

Pressure: 29.91 "Hg

Humidity: 71%

Dew Point: 52 °F

Location of LetterkennyLocation

Past Weather in Letterkenny — Graph

°F

Letterkenny Temperature Yesterday

Maximum temperature yesterday: 70 °F (at 2:00 PM)
Minimum temperature yesterday: 51 °F (at 4:00 AM)
Average temperature yesterday: 58 °F

High & Low Weather Summary for the Past Weeks

 TemperatureHumidityPressure
High75 °F (Aug 16, 1:00 PM)99% (Aug 18, 8:00 AM)30.30 "Hg (Aug 18, 8:00 AM)
Low42 °F (Aug 24, 7:00 AM)56% (Aug 16, 12:00 PM)29.15 "Hg (Aug 20, 5:00 AM)
Average60 °F86%29.93 "Hg
* Reported Aug 11 12:00 PM — Aug 26 12:00 PM, Letterkenny, Weather by CustomWeather, © 2016

Note: Actual official high and low records may vary slightly from our data, if they occured in-between our weather recording intervals... More about our weather records

Advertising

Letterkenny Weather History for the Previous 24 Hours

Scroll right to see more
 ConditionsComfort  
Time TempWeatherWind HumidityBarometerVisibility
12:00 PM
Fri, Aug 26
62 °FCool.16 mph71%29.91 "Hg22 mi
11:00 AM60 °FCool.17 mph71%29.91 "Hg28 mi
10:00 AM58 °FCool.14 mph80%29.90 "Hg28 mi
9:00 AM56 °FCool.13 mph90%29.87 "Hg31 mi
8:00 AM55 °FCool.12 mph91%29.86 "Hg19 mi
7:00 AM53 °FCool.8 mph94%29.86 "Hg22 mi
6:00 AM53 °FCool.3 mph92%29.86 "Hg19 mi
5:00 AM54 °FCool.8 mph94%29.86 "Hg19 mi
4:00 AM53 °FCool.10 mph96%29.88 "Hg19 mi
3:00 AM51 °FCool.2 mph96%29.88 "Hg16 mi
2:00 AM53 °FCool.8 mph96%29.88 "Hg22 mi
1:00 AM54 °FCool.5 mph96%29.89 "Hg22 mi
12:00 AM56 °FCool.1 mph96%29.90 "Hg19 mi
11:00 PM
Thu, Aug 25
56 °FLight rain. Overcast.7 mph95%29.89 "Hg25 mi
10:00 PM56 °FRain. Overcast.5 mph96%29.90 "Hg12 mi
9:00 PM56 °FRain. Overcast.2 mph95%29.90 "Hg6 mi
8:00 PM57 °FRain. Cloudy.7 mph94%29.91 "Hg14 mi
7:00 PM60 °FCool.10 mph89%29.89 "Hg14 mi
6:00 PM66 °FMild.10 mph63%29.89 "Hg31 mi
4:00 PM69 °FMild.12 mph58%29.93 "Hg25 mi
3:00 PM68 °FMild.10 mph56%29.95 "Hg28 mi
2:00 PM70 °FMild.10 mph59%29.96 "Hg22 mi
1:00 PM68 °FMild.9 mph57%29.98 "Hg17 mi
Weather by CustomWeather, © 2016

See weather overviewHow to use our weather pages